Location: Milton Keynes
(52.0316°N, 0.7531°W)
Time: 11:05:57
(UTC+00:00)

Tiangong - Visible Passes

Search period start: 07 February 2026 00:00
Search period end: 17 February 2026 00:00
Orbit: 386 x 393 km, 41.5° (Epoch: 7 February)

Date Brightness Start Highest point End Pass type
(mag) Time Alt. Az. Time Alt. Az. Time Alt. Az.
13 Feb 0.5 18:54:18 10° S 18:55:10 11° SSE 18:55:31 11° SSE visible
14 Feb 0.6 19:31:37 10° SSW 19:32:17 12° SSW 19:32:17 12° SSW visible
15 Feb 0.4 18:33:32 10° SSW 18:34:57 12° S 18:36:22 10° SSE visible
16 Feb 0.5 19:11:27 10° SSW 19:12:50 12° S 19:13:22 12° S visible
